Home   Weather   Ramat Gan   Past weeks

Flag for Israel Past Weather in Ramat Gan, Israel — Yesterday and Last 2 Weeks

Now
59 °F

Clear.


Feels Like: 60 °F
Forecast: 52 / 73 °F
Wind: 3 mph from North

Location: Dov Airport

Current Time: Feb 25, 2017 at 10:38:05 pm

Latest Report: Feb 25, 2017 at 9:50 pm


Visibility: 10 mi

Pressure: 30.18 "Hg

Humidity: 59%

Dew Point: 45 °F

Location of Ramat GanLocation

Past Weather in Ramat Gan — Graph

°F

Ramat Gan Temperature Yesterday

Maximum temperature yesterday: 64 °F (at 11:50 am)
Minimum temperature yesterday: 52 °F (at 4:00 am)
Average temperature yesterday: 59 °F

High & Low Weather Summary for the Past Weeks

 TemperatureHumidityPressure
High68 °F (Feb 19, 2:50 pm)94% (Feb 11, 6:00 am)30.39 "Hg (Feb 11, 6:00 am)
Low45 °F (Feb 17, 5:00 am)18% (Feb 19, 4:50 pm)29.92 "Hg (Feb 11, 12:50 pm)
Average56 °F67%30.11 "Hg
* Reported Feb 10 8:50 pm — Feb 25 8:50 pm, Ramat Gan, Weather by CustomWeather, © 2017

Note: Actual official high and low records may vary slightly from our data, if they occured in-between our weather recording intervals... More about our weather records

Advertising

Ramat Gan Weather History for the Previous 24 Hours

Scroll right to see more
 ConditionsComfort  
Time TempWeatherWind HumidityBarometerVisibility
8:50 pm
Sat, Feb 25
61 °FClear.3 mph59%30.15 "Hg10 mi
7:50 pm61 °FClear.3 mph63%30.18 "Hg10 mi
6:50 pm63 °FClear.3 mph68%30.15 "Hg10 mi
5:50 pm63 °FClear.6 mph77%30.15 "Hg6 mi
4:50 pm64 °FClear.7 mph83%30.15 "Hg5 mi
3:50 pm66 °FClear.6 mph78%30.15 "Hg4 mi
2:50 pm64 °FClear.7 mph78%30.15 "Hg4 mi
1:50 pm64 °FClear.7 mph83%30.18 "Hg5 mi
12:50 pm64 °FSunny.6 mph78%30.18 "Hg10 mi
11:50 am64 °FClear.7 mph78%30.21 "Hg6 mi
10:50 am63 °FSunny.7 mph73%30.24 "Hg10 mi
9:50 am63 °FSunny.2 mph59%30.24 "Hg10 mi
8:50 am61 °FSunny.2 mph59%30.24 "Hg10 mi
7:50 am57 °FSunny.3 mph72%30.24 "Hg10 mi
6:50 am50 °FClear.5 mph88%30.24 "Hg6 mi
6:00 am52 °FClear.1 mph82%30.24 "Hg5 mi
Weather by CustomWeather, © 2017

See weather overviewHow to use our weather pages